Home > Weather > Caguas > Past weeks

Flag for Puerto Rico Past Weather in Caguas, Puerto Rico — Yesterday and Last 2 Weeks

Now
79 °F

Passing clouds.


Feels Like: 83 °F
Forecast: 74 / 85 °F
Wind: No wind

Location: Luis Munoz Marin

Current Time: May 31, 2016 at 12:03:21 AM

Latest Report: May 30, 2016 at 10:56 PM


Visibility: 10 mi

Pressure: 30.00 "Hg

Humidity: 94%

Dew Point: 77 °F

Location of CaguasLocation

Past Weather in Caguas — Graph

°F

Caguas Temperature Yesterday

Maximum temperature yesterday: 84 °F (at 8:56 AM)
Minimum temperature yesterday: 76 °F (at 12:56 AM)
Average temperature yesterday: 79 °F

High & Low Weather Summary for the Past Weeks

 TemperatureHumidityPressure
High91 °F (May 22, 1:56 PM)100% (May 29, 9:56 PM)30.12 "Hg (May 29, 9:56 PM)
Low75 °F (May 29, 9:56 PM)50% (May 22, 1:56 PM)29.90 "Hg (May 27, 3:56 PM)
Average82 °F79%30.02 "Hg
* Reported May 15 9:56 PM — May 30 9:56 PM, Caguas, Weather by CustomWeather, © 2016

Note: Actual official high and low records may vary slightly from our data, if they occured in-between our weather recording intervals... More about our weather records

Advertising

Caguas Weather History for the Previous 24 Hours

Scroll right to see more
 ConditionsComfort  
Time TempWeatherWind HumidityBarometerVisibility
9:56 PM
Mon, May 30
79 °FPassing clouds.5 mph94%30.00 "Hg10 mi
8:56 PM79 °FPassing clouds.No wind97%29.98 "Hg10 mi
7:56 PM79 °FPassing clouds.5 mph97%29.97 "Hg10 mi
6:56 PM80 °FScattered clouds.6 mph94%29.95 "Hg10 mi
5:56 PM80 °FBroken clouds.7 mph96%29.93 "Hg10 mi
4:56 PM80 °FPartly sunny.8 mph94%29.94 "Hg10 mi
3:56 PM81 °FBroken clouds.6 mph94%29.94 "Hg10 mi
3:00 PM82 °FThunderstorms. Broken clouds.13 mph89%29.95 "Hg10 mi
1:56 PM81 °FLight rain. Broken clouds.8 mph94%29.96 "Hg10 mi
12:56 PM83 °FBroken clouds.8 mph88%29.98 "Hg10 mi
11:56 AM80 °FLight rain. Scattered clouds.5 mph81%29.99 "Hg10 mi
10:56 AM77 °FLight rain. Broken clouds.No wind94%30.00 "Hg10 mi
9:56 AM83 °FScattered clouds.9 mph82%30.00 "Hg10 mi
8:56 AM84 °FScattered clouds.3 mph80%30.00 "Hg10 mi
7:56 AM79 °FScattered clouds.No wind94%29.99 "Hg10 mi
6:56 AM76 °FMostly cloudy.3 mph100%29.98 "Hg10 mi
5:56 AM76 °FPassing clouds.No wind100%29.97 "Hg10 mi
4:56 AM76 °FPassing clouds.No wind97%29.96 "Hg10 mi
3:56 AM77 °FPassing clouds.No wind96%29.96 "Hg10 mi
2:56 AM77 °FPassing clouds.No wind96%29.96 "Hg10 mi
1:56 AM77 °FPassing clouds.No wind96%29.96 "Hg10 mi
12:56 AM76 °FPassing clouds.No wind100%29.98 "Hg10 mi
Weather by CustomWeather, © 2016

See weather overviewHow to use our weather pages